Regional Weather Roundup
Issued by NWS Charleston, SC

Current Version | Previous Version | Graphics & Text | Print | Product List | Glossary On
Versions: 1 2 3 4 5 6 7 8 9 10 11 12 13 14 15 16 17 18 19 20 21 22 23 24 25 26 27 28 29 30 31 32 33 34 35 36 37 38 39 40 41 42 43 44 45 46 47 48 49 50
000 ASUS42 KCHS 221526 RWRCHS REGIONAL WEATHER ROUNDUP NATIONAL WEATHER SERVICE CHARLESTON SC 1100 AM EDT FRI SEP 22 2017 NOTE: "FAIR" INDICATES FEW OR NO CLOUDS BELOW 12,000 FEET WITH NO SIGNIFICANT WEATHER AND/OR OBSTRUCTIONS TO VISIBILITY. NOT ALL STATIONS ARE QUALITY CONTROLLED. USE DATA WITH CAUTION... ESPECIALLY DEWPOINT OBSERVATIONS. SCZ027-030-031-034>040-042>050-221600- ...SOUTHEAST SOUTH CAROLINA... CITY SKY/WX TMP DP RH WIND PRES REMARKS N CHARLESTON MOSUNNY 81 73 76 NE6 30.06S WATERFRONT PRK N/A 78 75 90 N5 29.90R JOHNS ISLAND FAIR 81 75 83 N6 30.06S HAZE PINOPOLIS N/A 75 73 94 VRB2 30.00R MONCKS CORNER FAIR 79 72 78 E3 30.07R SUMMERVILLE FAIR 79 72 78 N3 30.07S BEAUFORT MCAS MOSUNNY 82 75 79 N5 30.06R BEAUFORT ARPT FAIR 81 73 78 NE8 30.06R HAZE HILTON HEAD IS MOSUNNY 82 75 78 NE7 30.06R WALTERBORO SUNNY 79 72 78 N3 30.08R ALLENDALE NOT AVBL ...SOUTHERN MIDLANDS AND PEE DEE... CITY SKY/WX TMP DP RH WIND PRES REMARKS GEORGETOWN FAIR 79 72 78 E3 30.07S KINGSTREE FAIR 79 70 73 NE3 30.07S ORANGEBURG SUNNY 81 67 62 VRB3 30.07S BARNWELL FAIR 82 72 69 CALM 30.07S AIKEN FAIR 81 68 65 CALM 30.11R MANNING FAIR 79 68 69 MISG 30.08R COLUMBIA SUNNY 83 68 60 NE6 30.07R SUMTER SUNNY 81 67 61 E6 30.05S FLORENCE SUNNY 80 67 64 NE6 30.08S MYRTLE BEACH SUNNY 81 69 67 SE9 30.08R N MYRTLE BEACH SUNNY 80 68 66 SE6 30.06R $$ GAZ063-065-086>088-099>101-113>116-118-119-134>141-150-221600- ...SOUTHEAST GEORGIA... CITY SKY/WX TMP DP RH WIND PRES REMARKS SAVANNAH ARPT MOSUNNY 84 72 67 N6 30.06R HUNTER AAF MOSUNNY 83 73 71 NE7 30.03R FORT STEWART MOSUNNY 82 71 67 N7 30.03S STATESBORO MOSUNNY 82 69 64 CALM 30.06S SYLVANIA MOSUNNY 82 74 78 CALM 30.07S CLAXTON FAIR 84 73 68 NE3 30.06R HX 90 ...CSRA...CENTRAL AND FAR SOUTHEAST GEORGIA... CITY SKY/WX TMP DP RH WIND PRES REMARKS THOMSON SUNNY 80 69 67 CALM 30.13R AUGUSTA-BUSH SUNNY 84 70 62 N3 30.06S AUGUSTA-DANIEL SUNNY 85 68 56 NE3 30.08R SWAINSBORO FAIR 81 72 74 NE3 30.08R VIDALIA MOSUNNY 79 75 89 NE3 30.07S EASTMAN FAIR 84 63 48 CALM 30.08S HAZLEHURST FAIR 83 65 55 N5 30.05S ALMA MOSUNNY 83 72 69 VRB3 30.05R WAYCROSS MOSUNNY 82 72 72 NE5 30.05R JESUP NOT AVBL BAXLEY FAIR 79 72 78 NE6 30.05S BRUNSWICK PTSUNNY 82 70 65 NE8 30.05R SAINT SIMONS MOSUNNY 85 73 67 NE13 30.04R HX 91 $$ SCZ027-028-034-036>038-045-046-048>050-GAZ119-141-221600- ...LAKE AND SUPPLEMENTAL COASTAL OBSERVATIONS... STATION/POSITION TIME TEMP WIND PRES WAVE SWELL AIR SEA DIR/SP/G HT/PER HT/PER/DIR (UTC) (F) (DEG/KT/KT) (MB) (FT/S) (FT/S/D) WINYAH BAY 1345 76 70/ 7 1018.0 LAKE MURRAY 1420 79 CALM / 2 1017.6 ACE BASIN NERRS 1345 73 10/ 1 1017.0 FORT PULASKI 1448 79 80 70/ 6/ 8 1018.0R SAPELO ISLAND 1400 80 CALM 1016.0 $$ ANZ835-935-AMZ111-154-330-350-352-354-370-450-454-472-221600- ...C-MAN AND BUOY OBSERVATIONS... STATION/POSITION TIME TEMP WIND PRES WAVE SWELL AIR SEA DIR/SP/G HT/PER HT/PER/DIR (UTC) (F) (DEG/KT/KT) (MB) (FT/S) (FT/S/D) BUOY 41004 1450 80 81 40/ 12/ 14 1017.2R 4/10 3/130/10 BUOY 41008 1450 80 80 60/ 12/ 16 1016.8R 3/10 2/140/10 FOLLY BEACH CMAN 1500 79 30/ 7/ 8 1018.5R CAPERS NEARSHORE 1408 77 81 30/ 8/ 12 1017.1R FRIPP NEARSHORE 1408 78 40/ 8/ 10 1022.8F STATION/POSITION TIME TEMP WIND PRES WAVE SWELL AIR SEA DIR/SP/G HT/PER HT/PER/DIR (UTC) (F) (DEG/KT/KT) (MB) (FT/S) (FT/S/D) 5E ST. MARYS GA 1500 82 N/A 3/11 2/ 90/11 FRYING PAN BUOY 1450 79 82 20/ 10/ 14 1017.3R 3/10 3/120/10 BUOY 41025 1450 76 76 330/ 4/ 6 1017.7R 5/11 5/ 70/11 CAPE LOOKOUT NC 1500 80 110/ 2/ 3 1017.5S BUOY 41002 1450 78 80 60/ 4/ 6 1017.0R 5/11 5/110/11 BUOY 41010 1450 40/ 19/ 23 1015.3F 6/11 5/11 ST AUGUSTINE FL 1500 80 83 30/ 14/ 16 1016.2R $$

USA.gov is the U.S. government's official web portal to all federal, state and local government web resources and services.